Find Starlink 30861

NORAD ID: 58230 Int'l Des: 2023-171 Owner: SPXS Country: US Constellation: starlink operational
LEOCIRCULAR

当前视图

正在加载3D地球...

About Starlink 30861

Starlink 30861 (NORAD 58230) is a starlink constellation satellite (v2 mini) launched Nov 8, 2023 by SPXS of US. It operates in LEO, CIRCULAR orbit with a mass of 730.00 kg.

即将过境

Passes for default location (London). Set your location on the main map for personalized predictions.

高度历史

Loading altitude history...

两行轨道根数

1 58230U 23171A 26237.54550830 .00063037 00000-0 16888-2 0 9994
2 58230 42.9893 48.5033 0015165 280.0510 79.8634 15.37045929155599
Epoch: Aug 25, 2026 • Age: 9 hours

当前状态

高度 456.1 km
远地点 / 近地点 N/A
速度 7.64 km/s
星下点 -21.91°S, 49.55°W
发射日期 Nov 8, 2023
运行时间 2.7 years
类型 internet

技术详情

分类 Payload
质量 730.00 kg
干质量 700.00 kg
总质量 730.00 kg
长度 0.30 m
直径 4.10 m
跨度 29.00 m
形状 Box + pan
制造商 SPXS
平台类型 Starlink V2M
阶段状态 In Orbit
所有者/国家 SPXS/US

Most Searched